Location: Cactus School
(34.5700°N, 118.0931°W)
Time: 05:02:58
(UTC-08:00)

Tiros 1 - Pass Details

Date: 22 November 2019
Orbit: 630 x 664 km, 48.4° (Epoch: 07 December)

Event Time Altitude Azimuth Distance (km) Brightness Sun altitude
Rises 11:35:13 0° 219° (SW) 2,913 11.1 35.2°
Reaches altitude 10° 11:37:34 10° 215° (SW) 2,004 10.6 35.2°
Maximum altitude 11:42:03 54° 138° (SE) 762 8.6 35.2°
Drops below altitude 10° 11:46:34 10° 61° (ENE) 2,006 9.5 35.2°
Sets 11:48:55 0° 57° (ENE) 2,916 10.2 35.2°
